Вернуться в каталог

STARLINK-34929

АктивенСвязьSSO
NORAD 65178·PAYLOAD·🇺🇸 United States

Запущен Aug 14, 2025 с Vandenberg Space Force Base

Loading…

Ближайшие Пролёты (ближайшие 24 часа)

TLE

СвежийSource: CelesTrak SupGP

Эпоха: Sep 15, 2026, 03:55 UTC

1 65178C 25175E   26258.16368056 -.00009127  00000+0 -28308-3 0  2587
2 65178  97.2845 127.2719 0002335 101.0964  81.4338 15.33469010    17

Отслеживайте STARLINK-34929 в реальном времени с AllMySat

Download on the App Store